Weather History for Francistown, Botswana

Change the Weather History Date:

Tuesday, November 5, 2013

  Actual Average Record
Temperature  
Mean Temperature 79 °F -  
Max Temperature 92 °F 86 °F 100 °F (1996)
Min Temperature 66 °F 64 °F 59 °F (2000)
Cooling Degree Days 14    
Growing Degree Days 29 (Base 50)    
Moisture  
Dew Point 48 °F    
Average Humidity 35    
Maximum Humidity 68    
Minimum Humidity 12    
Precipitation  
Precipitation 0.00 in - - ()
Sea Level Pressure  
Sea Level Pressure 30.09 in    
Wind  
Wind Speed 7 mph ()    
Max Wind Speed 12 mph    
Max Gust Speed -    
Visibility 6.1 miles    
Events      
Averages and records for this station are not official NWS values.
T = Trace of Precipitation, MM = Missing Value Source: Averaged Metar Reports

Daily Weather History Graph

Daily Weather History Graph

Search for Another Location

Airport:

Trip Planner

Search our weather history database for the weather conditions in past years. The results will help you decide how hot, cold, wet, or windy it might be!

Date:

Astronomy

Nov. 05, 2013 Rise Set
Actual Time 5:24 AM CAT 6:22 PM CAT
Civil Twilight 5:01 AM CAT 6:46 PM CAT
Nautical Twilight 4:34 AM CAT 7:13 PM CAT
Astronomical Twilight 4:05 AM CAT 7:41 PM CAT
Moon 6:56 AM CAT (11/5) 8:29 PM CAT (11/5)
Length of Visible Light 13h 44m
Length of Day
12h 57m
Waxing Crescent, 5% of the Moon is Illuminated
Nov 5
Waxing Crescent
Nov 10
First Quarter
Nov 17
Full
Nov 25
Last Quarter
Dec 3
New

Hourly Weather History & Observations

Time (CAT) Temp. Heat Index Dew Point Humidity Pressure Visibility Wind Dir Wind Speed Gust Speed Precip Events Conditions
12:00 AM 73.4 °F - 51.8 °F 47% 30.15 in - ENE 10.4 mph - N/A   Clear
1:00 AM 71.6 °F - 51.8 °F 50% 30.15 in - ENE 8.1 mph - N/A   Clear
2:00 AM 70 °F - 55 °F 49%  in 6 mi East 5.8 mph - -   Partly Cloudy
2:00 AM 69.8 °F - 55.4 °F 60% 30.12 in - East 5.8 mph - N/A   Clear
3:00 AM 69.8 °F - 55.4 °F 60% 30.12 in - East 6.9 mph - N/A   Clear
4:00 AM 66.2 °F - 55.4 °F 68% 30.12 in - ENE 6.9 mph - N/A   Clear
5:00 AM 66.2 °F - 55.4 °F 68% 30.12 in - NE 8.1 mph - N/A   Clear
7:00 AM 71.6 °F - 57.2 °F 60% 30.15 in - NE 9.2 mph - N/A   Clear
8:00 AM 77.0 °F - 57.2 °F 50% 30.18 in - East 11.5 mph - N/A   Clear
9:00 AM 80.6 °F 80.5 °F 55.4 °F 42% 30.18 in - East 8.1 mph - N/A   Clear
10:00 AM 84.2 °F - 46.4 °F 27% 30.15 in 6.2 mi East 9.2 mph - N/A   Partly Cloudy
11:00 AM 86.0 °F - 46.4 °F 25% 30.12 in 6.2 mi ESE 11.5 mph - N/A   Partly Cloudy
12:00 PM 87.8 °F - 42.8 °F 21% 30.12 in 6.2 mi NNW 4.6 mph - N/A   Partly Cloudy
1:00 PM 89.6 °F - 42.8 °F 20% 30.09 in 6.2 mi East 9.2 mph - N/A   Partly Cloudy
2:00 PM 91 °F - 44 °F 12%  in 6 mi East 8.1 mph - -   Scattered Clouds
2:00 PM 91.4 °F - 44.6 °F 20% 30.06 in 6.2 mi East 8.1 mph - N/A   Scattered Clouds
3:00 PM 91.4 °F - 41.0 °F 17% 30.04 in - South 4.6 mph - N/A   Clear
4:00 PM 91.4 °F - 42.8 °F 18% 30.01 in - ENE 9.2 mph - N/A   Clear
5:00 PM 91.4 °F - 41.0 °F 17% 30.01 in - ESE 8.1 mph - N/A   Clear
6:00 PM 89.6 °F - 41.0 °F 18% 30.01 in - ESE 8.1 mph - N/A   Clear
7:00 PM 86.0 °F - 44.6 °F 23% 30.01 in - SE 5.8 mph - N/A   Clear
8:00 PM 83 °F - 42 °F 14%  in 6 mi ESE 6.9 mph - -   Scattered Clouds
8:00 PM 84.2 °F - 41.0 °F 22% 30.04 in - ESE 6.9 mph - N/A   Clear
9:00 PM 84.2 °F - 41.0 °F 22% 30.04 in - SE 5.8 mph - N/A   Clear
10:00 PM 77.0 °F - 42.8 °F 29% 30.06 in - ESE 4.6 mph - N/A   Clear
11:00 PM 75.2 °F - 48.2 °F 38% 30.09 in - SE 5.8 mph - N/A   Clear